Waarnemingen

Advertentie
Mijn weer
Fürstenzell, Duitsland (10895): temperatuur & dauwpunt: 16.11.2017 08:00:00 - 22.11.2017 08:00:00 (CET)Fürstenzell, Duitsland (10895): temperatuur 5cm & temperatuur -5cm: 16.11.2017 08:00:00 - 22.11.2017 08:00:00 (CET)Fürstenzell, Duitsland (10895): temperatuur -20cm & temperatuur -100cm: 16.11.2017 08:00:00 - 22.11.2017 08:00:00 (CET)Fürstenzell, Duitsland (10895): windsnelheid & windstoten: 16.11.2017 08:00:00 - 22.11.2017 08:00:00 (CET)Fürstenzell, Duitsland (10895): windrichting: 16.11.2017 08:00:00 - 22.11.2017 08:00:00 (CET)Fürstenzell, Duitsland (10895): luchtdruk: 16.11.2017 08:00:00 - 22.11.2017 08:00:00 (CET)Fürstenzell, Duitsland (10895): zicht: 16.11.2017 08:00:00 - 22.11.2017 08:00:00 (CET)Fürstenzell, Duitsland (10895): Zonneschijnduur: 16.11.2017 08:00:00 - 22.11.2017 08:00:00 (CET)Fürstenzell, Duitsland (10895): neerslag: 16.11.2017 08:00:00 - 22.11.2017 08:00:00 (CET)
Datum & Tijd tt [°C] td [°C] tt 5cm [°C] tt -5cm [°C] tt -20cm [°C] tt -100cm [°C] ff [km/u] ff [kn] fx [km/u] fx [kn] dd ppp [hPa] vv [km] sd [min] rr [mm]
22.11.2017 08:00:00 3,3 3,1 -0,7 1,0 3,4 7,9 0 0 0 0 N 1016,6 12 0 0,0
22.11.2017 07:00:00 3,1 3,1 -1,2 1,2 3,5 7,9 0 0 0 0 N 1016,6 4,4 0 0,0
22.11.2017 06:00:00 3,0 3,0 -0,7 1,4 3,6 7,9 0 0 5 3 N 1016,7 7 0 0,0
22.11.2017 05:00:00 0,6 0,6 -1,1 1,7 3,8 7,9 3 2 5 3 NNO 1017,4 0,5 0 0,0
22.11.2017 04:00:00 3,2 3,2 -0,9 2,1 3,9 7,9 1 1 6 4 WZW 1016,7 10 0 0,0
22.11.2017 03:00:00 0,9 0,9 0,5 2,4 4,0 7,9 4 2 12 6 ONO 1017,4 0,1 0 0,0
22.11.2017 02:00:00 4,6 4,4 3,1 2,8 4,1 7,9 10 6 16 9 W 1016,3 14 0 0,0
22.11.2017 01:00:00 4,4 4,4 2,0 3,1 4,2 7,9 7 4 9 5 WZW 1016,5 0,2 0 0,0
22.11.2017 00:00:00 4,5 4,5 1,3 3,5 4,2 7,9 5 3 8 5 ZZW 1016,6 0,2 0 0,0
21.11.2017 23:00:00 4,3 4,3 3,4 4,1 4,2 7,9 0 0 6 4 N 1016,8 - 0 0,0
21.11.2017 22:00:00 5,1 5,1 4,1 4,3 4,2 7,9 0 0 8 5 N 1016,5 0,1 0 0,0
21.11.2017 21:00:00 5,3 5,3 3,9 4,6 4,2 7,9 5 3 21 12 ZZW 1016,6 0,2 0 0,0
21.11.2017 20:00:00 5,8 5,8 5,4 4,8 4,1 8,0 2 1 17 9 NW 1016,5 9 0 0,0
21.11.2017 19:00:00 6,3 6,0 5,7 4,9 4,1 8,0 13 7 26 14 W 1016,6 33 0 0,3
21.11.2017 18:00:00 5,9 5,9 5,7 4,8 4,0 8,0 15 8 22 12 WZW 1016,8 4,6 0 0,9
21.11.2017 17:00:00 5,7 5,7 5,5 4,7 3,9 8,0 14 8 24 13 WZW 1016,6 2,3 0 0,8
21.11.2017 16:00:00 5,7 5,7 5,5 4,8 3,7 8,0 16 9 28 15 ZW 1016,5 8 0 0,6
21.11.2017 15:00:00 6,0 6,0 5,8 4,8 3,6 8,0 18 10 30 16 WZW 1016,7 12 0 0,7
21.11.2017 14:00:00 6,0 5,7 5,6 4,6 3,3 8,0 18 10 29 16 WZW 1016,7 19 0 0,9
21.11.2017 13:00:00 6,0 5,7 5,7 4,3 3,0 8,0 14 8 24 13 WZW 1016,7 10 0 0,5
21.11.2017 12:00:00 5,9 5,0 5,6 3,6 2,5 8,0 16 8 29 16 W 1017,0 35 0 0,0
21.11.2017 11:00:00 5,3 4,6 4,6 2,8 2,3 8,1 14 8 27 14 W 1017,6 39 0 0,4
21.11.2017 10:00:00 4,6 4,4 4,0 1,9 2,0 8,1 21 12 35 19 W 1017,6 7 0 0,5
21.11.2017 09:00:00 4,0 4,0 3,2 0,7 1,9 8,1 15 8 29 16 WZW 1017,5 4,4 0 0,4
21.11.2017 08:00:00 3,6 3,6 2,8 1,1 2,5 8,1 20 11 33 18 W 1017,4 6 0 0,3
21.11.2017 07:00:00 3,3 3,3 2,4 0,9 2,6 8,1 20 11 31 17 WZW 1016,7 1,4 0 0,6
21.11.2017 06:00:00 2,1 2,1 0,3 0,9 2,7 8,2 10 5 18 10 WZW 1017,1 0,9 0 0,7
21.11.2017 05:00:00 1,4 1,4 0,1 0,9 2,8 8,2 7 4 12 7 ZW 1017,1 0,7 0 0,3
21.11.2017 04:00:00 0,7 0,7 0,0 0,9 2,9 8,2 3 1 6 3 W 1017,5 1,2 0 0,8
21.11.2017 03:00:00 0,3 0,3 0,0 1,0 2,9 8,2 2 1 5 3 ZZW 1017,5 0,5 0 1,1
21.11.2017 02:00:00 0,1 0,1 0,0 1,0 3,0 8,2 0 0 5 3 N 1017,8 1,8 0 1,3
21.11.2017 01:00:00 -0,1 -0,1 0,0 1,0 3,0 8,2 4 2 20 11 ZZW 1018,3 0,8 0 1,7
21.11.2017 00:00:00 -0,1 -0,1 0,0 1,1 3,1 8,2 5 3 9 5 Z 1019,0 0,3 0 2,0
20.11.2017 23:00:00 -0,2 -0,2 0,0 1,1 3,2 8,2 6 3 11 6 ZZW 1019,6 0,2 0 1,6
20.11.2017 22:00:00 -0,2 -0,2 0,0 1,2 3,3 8,2 5 3 9 5 ZZW 1020,4 0,1 0 0,5
20.11.2017 21:00:00 -0,1 -0,1 0,0 1,2 3,4 8,2 6 4 11 6 ZZW 1020,7 0,4 0 0,8
20.11.2017 20:00:00 0,0 0,0 0,0 1,4 3,5 8,2 6 3 16 9 ZW 1021,3 0,3 0 0,4
20.11.2017 19:00:00 0,1 0,1 0,0 1,6 3,7 8,3 9 5 36 20 ZW 1021,6 2,1 0 0,5
20.11.2017 18:00:00 0,0 0,0 0,0 2,0 3,7 8,3 8 5 20 11 ZW 1022,0 0,7 0 0,3
20.11.2017 17:00:00 0,4 0,1 0,2 2,4 3,8 8,3 16 9 39 21 WZW 1022,2 2,8 0 0,0
20.11.2017 16:00:00 0,9 -0,5 0,6 2,8 3,8 8,3 23 13 45 24 W 1022,2 11 0 0,1
20.11.2017 15:00:00 2,8 -0,8 2,7 3,4 3,7 8,3 21 12 40 21 W 1021,6 29 0 0,0
20.11.2017 14:00:00 3,0 -0,2 2,5 3,6 3,6 8,3 21 11 39 21 W 1021,7 36 0 0,0
20.11.2017 13:00:00 3,1 0,0 2,7 3,5 3,5 8,3 21 12 34 18 W 1022,1 32 0 0,0
20.11.2017 12:00:00 2,9 0,4 2,8 3,1 3,4 8,3 23 12 39 21 W 1022,6 27 0 0,0
20.11.2017 11:00:00 2,4 0,7 2,5 2,7 3,4 8,3 21 12 36 19 WZW 1023,1 22 0 0,0
20.11.2017 10:00:00 1,6 0,8 1,6 2,4 3,4 8,3 21 12 39 21 WZW 1023,3 12 0 0,1
20.11.2017 09:00:00 1,6 1,0 1,5 2,2 3,4 8,3 20 11 37 20 WZW 1022,8 13 0 0,0
20.11.2017 08:00:00 1,4 1,1 1,3 2,1 3,4 8,3 21 11 38 21 WZW 1022,5 12 0 0,3
20.11.2017 07:00:00 2,3 0,7 1,6 2,2 3,4 8,4 21 11 43 23 WZW 1021,9 29 0 0,0
20.11.2017 06:00:00 2,3 0,6 1,6 2,1 3,4 8,4 28 15 47 25 W 1021,4 29 0 0,0
20.11.2017 05:00:00 2,1 0,9 1,5 2,1 3,5 8,4 31 17 47 26 W 1021,0 29 0 0,0
20.11.2017 04:00:00 2,1 1,1 1,5 2,1 3,5 8,4 26 14 50 27 W 1020,7 24 0 0,0
20.11.2017 03:00:00 2,4 0,9 1,6 2,2 3,5 8,4 31 17 50 27 W 1020,3 31 0 0,0
20.11.2017 02:00:00 2,1 0,9 1,5 2,2 3,5 8,4 28 15 51 28 W 1020,3 2,8 0 0,0
20.11.2017 01:00:00 2,3 0,9 1,6 2,2 3,5 8,4 34 18 56 30 W 1020,1 34 0 0,0
20.11.2017 00:00:00 1,9 1,1 1,5 2,2 3,6 8,4 35 19 54 29 W 1020,0 25 0 0,8
19.11.2017 23:00:00 2,8 0,4 2,0 2,4 3,6 8,4 31 17 50 27 W 1019,7 19 0 0,0
19.11.2017 22:00:00 2,9 0,5 1,9 2,4 3,6 8,4 29 15 53 29 W 1019,4 40 0 0,1
19.11.2017 21:00:00 2,7 0,8 1,7 2,4 3,6 8,4 31 17 48 26 WZW 1018,7 38 0 0,2
19.11.2017 20:00:00 2,7 0,4 2,1 2,4 3,6 8,4 29 16 41 22 WZW 1018,4 23 0 0,0
19.11.2017 19:00:00 2,7 0,1 2,2 2,4 3,6 8,4 24 13 40 21 WZW 1018,3 57 0 0,0
19.11.2017 18:00:00 2,6 0,4 2,0 2,5 3,6 8,5 26 14 39 21 W 1018,0 45 0 0,0
19.11.2017 17:00:00 2,5 0,8 2,0 2,6 3,6 8,5 23 12 38 21 WZW 1017,7 50 0 0,0
19.11.2017 16:00:00 2,2 0,7 1,8 2,9 3,6 8,5 21 12 32 17 WZW 1017,4 34 0 0,0
19.11.2017 15:00:00 2,4 0,7 2,0 3,2 3,4 8,5 19 10 43 23 W 1017,2 48 19 0,1
19.11.2017 14:00:00 1,4 0,2 1,4 3,1 3,4 8,5 31 17 59 32 WNW 1016,9 10 13 0,0
19.11.2017 13:00:00 1,8 0,9 2,1 2,3 3,3 8,5 21 11 39 21 WNW 1016,2 37 0 0,2
19.11.2017 12:00:00 1,4 1,2 1,4 1,9 3,3 8,5 19 11 34 19 W 1016,0 7 0 0,3
19.11.2017 11:00:00 0,6 0,6 0,5 1,5 3,4 8,5 18 10 26 14 W 1015,9 7 0 0,6
19.11.2017 10:00:00 0,4 0,4 0,0 1,4 3,5 8,5 16 9 26 14 W 1015,5 3,6 0 1,6
19.11.2017 09:00:00 0,9 0,8 0,5 1,8 3,6 8,5 18 10 35 19 WZW 1015,1 3,0 0 0,4
19.11.2017 08:00:00 0,9 0,7 0,6 1,7 3,7 8,5 19 11 39 21 WZW 1015,1 4,7 0 0,2
19.11.2017 07:00:00 0,6 0,6 0,4 1,6 3,8 8,5 19 11 35 19 ZW 1015,0 5 0 0,8
19.11.2017 06:00:00 0,6 0,5 0,1 2,0 3,9 8,5 20 11 42 23 WZW 1015,7 2,2 0 1,1
19.11.2017 05:00:00 1,6 0,2 1,1 2,3 3,9 8,6 26 14 43 23 W 1016,1 6 0 0,1
19.11.2017 04:00:00 2,3 -0,4 1,5 2,4 4,0 8,6 20 11 34 18 WZW 1016,2 19 0 0,1
19.11.2017 03:00:00 2,1 -0,3 1,6 2,5 4,0 8,6 17 9 31 17 WZW 1017,0 14 0 0,0
19.11.2017 02:00:00 2,6 -1,1 2,1 2,5 4,1 8,6 19 10 33 18 WZW 1017,5 20 0 0,0
19.11.2017 01:00:00 2,7 -1,4 2,2 2,6 4,1 8,6 18 10 32 18 WZW 1018,4 23 0 0,0
19.11.2017 00:00:00 2,8 -1,3 2,3 2,7 4,2 8,6 21 11 36 19 WZW 1019,1 29 0 0,0
18.11.2017 23:00:00 3,1 -1,4 2,6 2,8 4,3 8,6 23 12 44 24 W 1019,5 29 0 0,0
18.11.2017 22:00:00 3,2 -0,7 2,6 3,0 4,3 8,6 22 12 40 22 WZW 1019,8 26 0 0,0
18.11.2017 21:00:00 3,5 -0,8 2,9 3,2 4,3 8,6 24 13 40 22 WZW 1019,6 28 0 0,0
18.11.2017 20:00:00 3,5 1,0 2,9 3,4 4,4 8,6 20 11 32 17 WZW 1019,6 16 0 0,0
18.11.2017 19:00:00 3,5 1,8 3,1 3,5 4,4 8,6 16 9 24 13 WZW 1019,9 13 0 0,0
18.11.2017 18:00:00 3,3 2,6 2,9 3,6 4,4 8,6 14 8 20 11 ZW 1019,9 8 0 0,0
18.11.2017 17:00:00 3,2 2,6 3,0 3,8 4,3 8,6 11 6 26 14 WZW 1020,3 8 0 0,0
18.11.2017 16:00:00 3,3 2,7 3,2 4,0 4,3 8,7 13 7 21 11 WZW 1020,6 5 0 0,0
18.11.2017 15:00:00 3,3 2,6 3,4 4,0 4,2 8,7 15 8 21 12 ZW 1021,0 4,3 0 0,0
18.11.2017 14:00:00 2,9 2,5 3,3 3,9 4,2 8,7 9 5 16 9 WZW 1021,6 3,8 0 0,0
18.11.2017 13:00:00 2,6 2,1 2,9 3,8 4,1 8,7 11 6 19 10 W 1022,4 3,4 0 0,0
18.11.2017 12:00:00 2,5 1,5 2,7 3,7 4,0 8,7 13 7 18 10 WZW 1022,9 5 0 0,0
18.11.2017 11:00:00 2,4 1,7 2,8 3,4 4,0 8,7 9 5 15 8 ZW 1023,2 4,4 0 0,0
18.11.2017 10:00:00 2,0 2,0 2,4 3,1 3,9 8,7 8 4 13 7 ZW 1023,7 2,6 0 0,0
18.11.2017 09:00:00 1,6 1,6 2,0 2,9 3,9 8,7 8 4 11 6 ZW 1024,2 1,4 0 0,0
18.11.2017 08:00:00 1,4 1,4 1,7 2,8 3,9 8,7 5 3 10 5 ZZW 1024,1 0,6 0 0,0
18.11.2017 07:00:00 1,4 1,4 1,6 2,8 4,0 8,7 6 3 9 5 ZW 1024,3 0,9 0 0,0
18.11.2017 06:00:00 1,4 1,4 1,6 2,8 4,0 8,7 3 2 6 3 W 1024,4 1,5 0 0,0
18.11.2017 05:00:00 1,3 1,3 1,5 2,8 4,0 8,8 4 2 8 4 WZW 1024,4 0,3 0 0,0
18.11.2017 04:00:00 1,3 1,3 1,5 2,8 4,0 8,8 4 2 6 4 ZW 1024,5 0,2 0 0,0
18.11.2017 03:00:00 1,3 1,3 1,5 2,8 4,0 8,8 0 0 0 0 N 1024,9 0,1 0 0,0
18.11.2017 02:00:00 1,4 1,4 1,5 2,8 4,0 8,8 0 0 4 2 N 1025,6 1,2 0 0,0
18.11.2017 01:00:00 1,4 1,4 1,5 2,8 4,0 8,8 3 2 6 3 WNW 1026,0 1,9 0 0,0
18.11.2017 00:00:00 1,3 1,3 1,5 2,8 4,1 8,8 0 0 0 0 N 1026,4 0,3 0 0,0
17.11.2017 23:00:00 1,2 1,2 1,1 2,9 4,1 8,8 0 0 0 0 N 1026,6 1,3 0 0,0
17.11.2017 22:00:00 1,2 1,2 1,3 2,9 4,1 8,8 0 0 5 3 N 1026,8 1,3 0 0,1
17.11.2017 21:00:00 1,2 1,2 1,3 3,0 4,1 8,8 5 3 5 3 Z 1027,0 1,7 0 0,2
17.11.2017 20:00:00 1,2 1,2 1,3 3,1 4,2 8,8 0 0 0 0 N 1027,1 1,5 0 0,3
17.11.2017 19:00:00 1,4 1,4 1,4 3,2 4,2 8,8 0 0 8 4 N 1027,1 2,0 0 0,2
17.11.2017 18:00:00 1,7 1,6 1,7 3,3 4,2 8,9 5 3 11 6 WNW 1027,4 2,3 0 0,2
17.11.2017 17:00:00 2,0 1,3 1,9 3,5 4,1 8,9 5 3 9 5 WNW 1027,2 4,0 0 0,0
17.11.2017 16:00:00 2,2 0,9 2,2 3,7 4,1 8,9 8 4 11 6 W 1027,2 6 0 0,0
17.11.2017 15:00:00 2,3 1,2 2,4 3,7 4,0 8,9 6 4 13 7 W 1027,3 6 0 0,0
17.11.2017 14:00:00 2,0 1,3 2,5 3,6 3,9 8,9 10 5 16 9 WNW 1027,1 4,8 0 0,0
17.11.2017 13:00:00 1,7 1,4 2,5 3,4 3,8 8,9 9 5 14 8 WNW 1027,5 4,0 0 0,0
17.11.2017 12:00:00 1,3 1,3 2,0 3,1 3,7 8,9 11 6 20 11 NW 1027,8 2,6 0 0,0
17.11.2017 11:00:00 1,0 1,0 1,9 2,9 3,7 8,9 11 6 21 11 W 1028,2 2,2 0 0,0
17.11.2017 10:00:00 0,9 0,9 1,7 2,5 3,6 8,9 13 7 17 9 W 1028,1 2,7 0 0,0
17.11.2017 09:00:00 0,3 0,3 0,8 2,1 3,7 8,9 11 6 22 12 W 1028,1 0,6 0 0,0
17.11.2017 08:00:00 0,1 0,1 0,4 2,0 3,7 9,0 15 8 21 12 W 1027,9 1,2 0 0,0
17.11.2017 07:00:00 0,0 0,0 0,2 2,0 3,7 9,0 16 9 24 13 WZW 1027,5 1,3 0 0,0
17.11.2017 06:00:00 -0,1 -0,1 0,2 2,1 3,8 9,0 13 7 20 11 WZW 1027,3 1,4 0 0,0
17.11.2017 05:00:00 -0,2 -0,2 0,1 2,2 3,8 9,0 12 7 21 12 WZW 1027,0 1,3 0 0,0
17.11.2017 04:00:00 -0,1 -0,1 0,2 2,3 3,9 9,0 12 7 21 11 WZW 1027,0 1,1 0 0,0
17.11.2017 03:00:00 0,2 0,2 0,5 2,3 3,9 9,0 6 4 10 5 WZW 1026,9 1,8 0 0,0
17.11.2017 02:00:00 0,3 0,0 0,3 2,3 3,9 9,0 6 3 13 7 WZW 1026,9 4,2 0 0,0
17.11.2017 01:00:00 0,3 -0,2 0,3 2,4 4,0 9,0 9 5 18 10 WZW 1026,7 5 0 0,0
17.11.2017 00:00:00 0,3 0,2 0,5 2,5 4,0 9,0 13 7 22 12 WZW 1026,7 4,2 0 0,0
16.11.2017 23:00:00 0,3 0,1 0,5 2,5 4,0 9,1 7 4 16 9 W 1026,5 2,8 0 0,0
16.11.2017 22:00:00 0,3 0,1 0,5 2,6 4,1 9,1 2 1 12 6 WZW 1026,3 3,5 0 0,0
16.11.2017 21:00:00 0,1 -0,2 0,3 2,6 4,1 9,1 0 0 0 0 N 1026,3 3,4 0 0,0
16.11.2017 20:00:00 0,2 -0,3 0,4 2,7 4,1 9,1 0 0 6 4 N 1026,2 4,5 0 0,0
16.11.2017 19:00:00 0,1 -0,3 0,5 2,8 4,2 9,1 6 3 10 5 NNO 1025,7 6 0 0,0
16.11.2017 18:00:00 0,3 -0,1 0,5 2,9 4,2 9,1 8 4 10 5 NO 1025,7 7 0 0,0
16.11.2017 17:00:00 0,4 -0,3 0,7 3,1 4,2 9,1 7 4 10 5 N 1025,4 10 0 0,0
16.11.2017 16:00:00 0,6 -0,2 1,1 3,4 4,1 9,1 6 3 9 5 NNW 1024,9 11 0 0,0
16.11.2017 15:00:00 0,7 -0,3 1,4 3,7 4,1 9,1 6 4 11 6 NW 1024,9 10 0 0,0
16.11.2017 14:00:00 0,6 -0,3 1,9 3,6 4,0 9,2 9 5 13 7 WNW 1024,8 9 0 0,0
16.11.2017 13:00:00 0,1 -0,9 1,5 3,3 3,9 9,2 8 4 12 7 WNW 1025,3 9 0 0,0
16.11.2017 12:00:00 -0,2 -0,3 1,0 2,9 3,8 9,2 7 4 12 7 WNW 1025,8 4,9 0 0,0
16.11.2017 11:00:00 -0,3 -0,3 0,7 2,8 3,8 9,2 3 2 10 6 WNW 1026,1 3,0 0 0,0
16.11.2017 10:00:00 -0,5 -0,5 0,4 2,6 3,8 9,2 4 2 8 4 ONO 1026,2 3,5 0 0,0
16.11.2017 09:00:00 -0,6 -0,6 0,0 2,3 3,8 9,2 0 0 0 0 N 1026,4 0,3 0 0,0
16.11.2017 08:00:00 -0,7 -0,7 -0,2 2,2 3,8 9,2 1 1 8 4 ZW 1026,4 0,7 0 0,0

tt = temperatuur
td = dauwpunt
tt 5cm = temperatuur 5cm
tt -5cm = temperatuur -5cm
tt -20cm = temperatuur -20cm
tt -100cm = temperatuur -100cm
ff = windsnelheid
fx = windstoten
dd = windrichting
ppp = luchtdruk
vv = zicht
sd = Zonneschijnduur
rr = neerslag

Weerstations in de omgeving